Location: Scultetus-Sternwarte G�rlitz
(51.1356°N, 14.9514°E)
Time: 23:23:40
(UTC+01:00)

ISS - Visible Passes

Search period start: 23 November 2017 00:00
Search period end: 03 December 2017 00:00
Orbit: 402 x 407 km, 51.6° (Epoch: 24 November)

Date Brightness Start Highest point End Pass type
(mag) Time Alt. Az. Time Alt. Az. Time Alt. Az.
28 Nov -1.5 18:16:42 10° SSW 18:17:50 16° S 18:17:50 16° S visible
29 Nov -1.6 17:25:26 10° S 17:27:05 13° SE 17:27:45 13° SE visible
29 Nov -0.9 18:59:48 10° SW 19:00:25 14° SW 19:00:25 14° SW visible
30 Nov -2.7 18:07:41 10° SW 18:10:15 33° S 18:10:15 33° S visible
01 Dec -2.2 17:15:46 10° SSW 17:18:28 24° SE 17:20:01 17° ESE visible
01 Dec -1.4 18:51:20 10° WSW 18:52:40 22° WSW 18:52:40 22° WSW visible
02 Dec -3.7 17:59:01 10° WSW 18:02:14 57° SSE 18:02:23 57° SE visible
